TimeEST,TemperatureF,Dew PointF,Humidity,Sea Level PressureIn,VisibilityMPH,Wind Direction,Wind SpeedMPH,Gust SpeedMPH,PrecipitationIn,Events,Conditions,WindDirDegrees,DateUTC
12:52 AM,10.9,6.1,81,29.72,10.0,NNW,3.5,-,N/A,,Partly Cloudy,340,2002-01-08 05:52:00
1:52 AM,5.0,3.0,92,29.75,10.0,Calm,Calm,-,N/A,,Clear,0,2002-01-08 06:52:00
2:52 AM,3.9,3.0,96,29.76,10.0,Calm,Calm,-,N/A,,Partly Cloudy,0,2002-01-08 07:52:00
3:52 AM,5.0,1.9,87,29.77,10.0,Calm,Calm,-,N/A,,Clear,0,2002-01-08 08:52:00
4:52 AM,8.1,6.1,92,29.79,10.0,North,5.8,-,N/A,,Clear,350,2002-01-08 09:52:00
5:52 AM,5.0,1.9,87,29.81,10.0,North,3.5,-,N/A,,Clear,350,2002-01-08 10:52:00
6:52 AM,7.0,3.9,87,29.84,10.0,North,5.8,-,N/A,,Clear,360,2002-01-08 11:52:00
7:52 AM,-2.0,-4.0,91,29.86,10.0,Calm,Calm,-,N/A,,Clear,0,2002-01-08 12:52:00
8:52 AM,1.9,-0.9,88,29.87,2.5,Calm,Calm,-,N/A,,Mostly Cloudy,0,2002-01-08 13:52:00
9:01 AM,1.4,-0.4,92,29.79,7.0,SSE,3.5,-,N/A,,Scattered Clouds,160,2002-01-08 14:01:00
9:52 AM,7.0,5.0,92,29.88,10.0,Calm,Calm,-,N/A,,Clear,0,2002-01-08 14:52:00
10:52 AM,12.0,6.1,77,29.86,10.0,Calm,Calm,-,N/A,,Clear,0,2002-01-08 15:52:00
11:52 AM,18.0,9.0,68,29.83,10.0,Calm,Calm,-,N/A,,Clear,0,2002-01-08 16:52:00
12:52 PM,21.0,10.9,65,29.80,10.0,North,4.6,-,N/A,,Clear,360,2002-01-08 17:52:00
1:52 PM,21.9,12.0,66,29.78,10.0,South,3.5,-,N/A,,Clear,180,2002-01-08 18:52:00
2:52 PM,24.1,12.0,60,29.81,10.0,Variable,3.5,-,N/A,,Clear,0,2002-01-08 19:52:00
3:52 PM,21.0,12.0,68,29.80,10.0,Calm,Calm,-,N/A,,Clear,0,2002-01-08 20:52:00
4:52 PM,12.9,12.0,96,29.80,10.0,Calm,Calm,-,N/A,,Clear,0,2002-01-08 21:52:00
5:52 PM,5.0,3.0,92,29.83,10.0,Calm,Calm,-,N/A,,Clear,0,2002-01-08 22:52:00
6:52 PM,3.9,1.0,88,29.84,10.0,Calm,Calm,-,N/A,,Clear,0,2002-01-08 23:52:00
7:52 PM,3.9,1.9,91,29.84,10.0,Calm,Calm,-,N/A,,Mostly Cloudy,0,2002-01-09 00:52:00
8:52 PM,7.0,3.9,87,29.82,10.0,Calm,Calm,-,N/A,,Partly Cloudy,0,2002-01-09 01:52:00
9:52 PM,6.1,3.9,91,29.81,9.0,Calm,Calm,-,N/A,,Mostly Cloudy,0,2002-01-09 02:52:00
10:52 PM,10.0,8.1,92,29.79,10.0,Calm,Calm,-,N/A,,Overcast,0,2002-01-09 03:52:00
11:52 PM,10.9,9.0,92,29.77,10.0,Calm,Calm,-,0.00,,Overcast,0,2002-01-09 04:52:00